| time (UTC) | temp F | wind direction | speed MPH | gust MPH | rain 1hr in | rain 24hr in | rain mn in | humidity % | barometer mb |
| 20260903184601 | 81 | 261 | 2.0 | 9.0 | 0.00 | 0.37 | 0.00 | 56 | 1010.0 |
| 20260903183102 | 81 | 279 | 3.0 | 13.0 | 0.00 | 0.37 | 0.00 | 58 | 1010.1 |
| 20260903181600 | 80 | 288 | 2.0 | 9.0 | 0.00 | 0.37 | 0.00 | 57 | 1010.2 |
| 20260903180104 | 81 | 318 | 3.0 | 11.0 | 0.00 | 0.37 | 0.00 | 60 | 1010.3 |
| 20260903174604 | 81 | 253 | 3.0 | 11.0 | 0.00 | 0.37 | 0.00 | 60 | 1010.3 |
| 20260903173101 | 80 | 298 | 3.0 | 10.0 | 0.00 | 0.37 | 0.00 | 62 | 1010.4 |
| 20260903171612 | 78 | 335 | 2.0 | 13.0 | 0.00 | 0.37 | 0.00 | 65 | 1010.3 |
| 20260903170107 | 78 | 269 | 2.0 | 8.0 | 0.00 | 0.37 | 0.00 | 66 | 1010.5 |
| 20260903164637 | 78 | 273 | 2.0 | 10.0 | 0.00 | 0.37 | 0.00 | 66 | 1010.3 |
| 20260903163103 | 77 | 28 | 3.0 | 9.0 | 0.00 | 0.37 | 0.00 | 67 | 1010.5 |
| 20260903161558 | 76 | 296 | 1.0 | 9.0 | 0.00 | 0.37 | 0.00 | 69 | 1010.8 |
| 20260903160105 | 77 | 311 | 2.0 | 8.0 | 0.00 | 0.37 | 0.00 | 69 | 1010.7 |
| 20260903154602 | 75 | 213 | 2.0 | 10.0 | 0.00 | 0.37 | 0.00 | 71 | 1010.7 |
| 20260903153103 | 75 | 275 | 1.0 | 10.0 | 0.00 | 0.37 | 0.00 | 73 | 1010.9 |
| 20260903151602 | 74 | 267 | 2.0 | 8.0 | 0.00 | 0.37 | 0.00 | 74 | 1011.0 |
| 20260903150101 | 74 | 259 | 3.0 | 8.0 | 0.00 | 0.37 | 0.00 | 73 | 1011.1 |
| 20260903144606 | 74 | 272 | 3.0 | 7.0 | 0.00 | 0.37 | 0.00 | 75 | 1011.1 |
| 20260903143105 | 73 | 302 | 1.0 | 7.0 | 0.00 | 0.37 | 0.00 | 77 | 1011.2 |
| 20260903141602 | 71 | 275 | 1.0 | 10.0 | 0.00 | 0.37 | 0.00 | 80 | 1011.1 |
| 20260903140105 | 71 | 300 | 3.0 | 9.0 | 0.00 | 0.37 | 0.00 | 80 | 1011.1 |
| 20260903134611 | 70 | 281 | 2.0 | 7.0 | 0.00 | 0.37 | 0.00 | 82 | 1010.9 |
| 20260903133103 | 70 | 36 | 2.0 | 6.0 | 0.00 | 0.37 | 0.00 | 83 | 1010.9 |
| 20260903131607 | 69 | 241 | 2.0 | 5.0 | 0.00 | 0.37 | 0.00 | 84 | 1010.9 |
| 20260903124610 | 69 | 244 | 2.0 | 7.0 | 0.00 | 0.37 | 0.00 | 85 | 1011.0 |
| 20260903123104 | 68 | 262 | 2.0 | 7.0 | 0.00 | 0.37 | 0.00 | 87 | 1010.7 |
| 20260903121615 | 68 | 284 | 2.0 | 6.0 | 0.00 | 0.37 | 0.00 | 89 | 1010.6 |
| 20260903120110 | 67 | 263 | 1.0 | 7.0 | 0.00 | 0.37 | 0.00 | 91 | 1010.8 |
| 20260903114601 | 66 | 292 | 1.0 | 6.0 | 0.00 | 0.37 | 0.00 | 91 | 1010.7 |
| 20260903113144 | 67 | 0 | 1.0 | 4.0 | 0.00 | 0.37 | 0.00 | 93 | 1010.5 |
| 20260903111602 | 66 | 306 | 1.0 | 4.0 | 0.00 | 0.37 | 0.00 | 93 | 1010.4 |
| 20260903110105 | 66 | 257 | 1.0 | 5.0 | 0.00 | 0.37 | 0.00 | 93 | 1010.3 |
| 20260903104611 | 66 | 0 | 0.0 | 2.0 | 0.00 | 0.37 | 0.00 | 94 | 1010.2 |
| 20260903103106 | 66 | 309 | 1.0 | 3.0 | 0.00 | 0.37 | 0.00 | 94 | 1010.2 |
| 20260903101603 | 67 | 290 | 1.0 | 5.0 | 0.00 | 0.37 | 0.00 | 93 | 1009.9 |
| 20260903094601 | 67 | 303 | 1.0 | 4.0 | 0.00 | 0.37 | 0.00 | 94 | 1009.8 |
| 20260903093106 | 67 | 283 | 2.0 | 7.0 | 0.00 | 0.37 | 0.00 | 95 | 1009.8 |
| 20260903091602 | 67 | 297 | 2.0 | 6.0 | 0.00 | 0.37 | 0.00 | 95 | 1009.6 |
| 20260903090109 | 67 | 259 | 1.0 | 3.0 | 0.00 | 0.37 | 0.00 | 95 | 1009.6 |
| 20260903084609 | 67 | 271 | 1.0 | 3.0 | 0.00 | 0.37 | 0.00 | 95 | 1009.6 |
| 20260903083105 | 67 | 298 | 1.0 | 2.0 | 0.00 | 0.37 | 0.00 | 95 | 1009.6 |
| 20260903081601 | 67 | 0 | 0.0 | 2.0 | 0.00 | 0.37 | 0.00 | 95 | 1009.7 |
| 20260903074603 | 67 | 0 | 0.0 | 3.0 | 0.00 | 0.37 | 0.00 | 95 | 1009.7 |
| 20260903073106 | 67 | 229 | 0.0 | 2.0 | 0.00 | 0.37 | 0.00 | 95 | 1009.8 |
| 20260903071613 | 67 | 275 | 0.0 | 2.0 | 0.00 | 0.37 | 0.00 | 94 | 1009.9 |
| 20260903064603 | 67 | 240 | 0.0 | 2.0 | 0.00 | 0.37 | 0.00 | 94 | 1009.9 |
| 20260903063103 | 67 | 0 | 0.0 | 2.0 | 0.00 | 0.37 | 0.00 | 94 | 1009.8 |
| 20260903061606 | 67 | 300 | 0.0 | 0.0 | 0.00 | 0.37 | 0.00 | 94 | 1009.7 |
| 20260903060105 | 67 | 0 | 0.0 | 2.0 | 0.00 | 0.37 | 0.00 | 94 | 1009.6 |
| 20260903054605 | 67 | 0 | 0.0 | 0.0 | 0.00 | 0.37 | 0.00 | 94 | 1009.4 |
| 20260903053102 | 67 | 0 | 0.0 | 0.0 | 0.00 | 0.37 | 0.00 | 94 | 1009.3 |
| 20260903051617 | 67 | 0 | 0.0 | 0.0 | 0.00 | 0.37 | 0.00 | 93 | 1009.3 |
| 20260903050115 | 67 | 0 | 0.0 | 0.0 | 0.00 | 0.37 | 0.00 | 93 | 1009.5 |
| 20260903044602 | 67 | 0 | 0.0 | 0.0 | 0.00 | 0.37 | 0.00 | 93 | 1009.7 |
| 20260903043208 | 67 | 0 | 0.0 | 0.0 | 0.00 | 0.37 | 0.00 | 93 | 1009.6 |
| 20260903041608 | 67 | 9 | 0.0 | 2.0 | 0.00 | 0.37 | 0.00 | 93 | 1009.6 |
| 20260903040107 | 67 | 0 | 0.0 | 0.0 | 0.01 | 0.37 | 0.00 | 93 | 1009.7 |
| 20260903034559 | 67 | 0 | 0.0 | 0.0 | 0.01 | 0.37 | 0.37 | 93 | 1009.8 |
| 20260903033057 | 67 | 0 | 0.0 | 0.0 | 0.01 | 0.37 | 0.37 | 93 | 1009.8 |
| 20260903031604 | 67 | 0 | 0.0 | 2.0 | 0.01 | 0.37 | 0.37 | 92 | 1009.8 |
| 20260903030103 | 67 | 0 | 0.0 | 2.0 | 0.00 | 0.36 | 0.36 | 92 | 1009.9 |
| 20260903024606 | 67 | 0 | 0.0 | 2.0 | 0.00 | 0.36 | 0.36 | 92 | 1009.9 |
| 20260903023105 | 67 | 79 | 0.0 | 2.0 | 0.00 | 0.36 | 0.36 | 92 | 1010.0 |
| 20260903021604 | 67 | 0 | 0.0 | 2.0 | 0.00 | 0.36 | 0.36 | 92 | 1010.1 |
| 20260903020056 | 67 | 43 | 0.0 | 2.0 | 0.00 | 0.36 | 0.36 | 92 | 1009.9 |
| 20260903014604 | 67 | 336 | 0.0 | 2.0 | 0.00 | 0.36 | 0.36 | 92 | 1009.7 |
| 20260903013109 | 67 | 30 | 0.0 | 2.0 | 0.00 | 0.36 | 0.36 | 92 | 1009.8 |
| 20260903011602 | 67 | 0 | 0.0 | 2.0 | 0.00 | 0.36 | 0.36 | 92 | 1010.0 |
| 20260903010106 | 67 | 24 | 1.0 | 3.0 | 0.00 | 0.36 | 0.36 | 91 | 1009.9 |
| 20260903004606 | 67 | 86 | 0.0 | 1.0 | 0.04 | 0.36 | 0.36 | 90 | 1009.8 |
| 20260903003106 | 67 | 0 | 0.0 | 2.0 | 0.06 | 0.36 | 0.36 | 91 | 1010.1 |
| 20260903001606 | 66 | 0 | 0.0 | 2.0 | 0.12 | 0.36 | 0.36 | 91 | 1009.9 |
| 20260902234616 | 68 | 0 | 0.0 | 2.0 | 0.26 | 0.32 | 0.32 | 90 | 1010.6 |
| 20260902233104 | 68 | 0 | 0.0 | 2.0 | 0.27 | 0.30 | 0.30 | 90 | 1010.1 |
| 20260902231610 | 70 | 285 | 1.0 | 4.0 | 0.22 | 0.24 | 0.24 | 88 | 1010.3 |
| 20260902230107 | 71 | 211 | 1.0 | 4.0 | 0.15 | 0.16 | 0.16 | 90 | 1010.4 |
| 20260902224612 | 72 | 277 | 1.0 | 2.0 | 0.04 | 0.05 | 0.05 | 89 | 1010.5 |
| 20260902223056 | 73 | 244 | 0.0 | 2.0 | 0.03 | 0.03 | 0.03 | 87 | 1010.3 |
| 20260902221608 | 73 | 185 | 0.0 | 2.0 | 0.02 | 0.02 | 0.02 | 87 | 1010.8 |
| 20260902220107 | 73 | 0 | 0.0 | 2.0 | 0.01 | 0.01 | 0.01 | 85 | 1010.6 |
| 20260902214604 | 73 | 106 | 0.0 | 2.0 | 0.01 | 0.01 | 0.01 | 86 | 1010.7 |
| 20260902213118 | 73 | 0 | 0.0 | 2.0 | 0.00 | 0.00 | 0.00 | 85 | 1011.3 |
| 20260902211606 | 74 | 0 | 0.0 | 2.0 | 0.00 | 0.00 | 0.00 | 83 | 1011.8 |
| 20260902210106 | 75 | 0 | 0.0 | 3.0 | 0.00 | 0.00 | 0.00 | 80 | 1011.3 |
| 20260902204602 | 76 | 200 | 1.0 | 3.0 | 0.00 | 0.00 | 0.00 | 76 | 1011.7 |
| 20260902203107 | 76 | 140 | 0.0 | 2.0 | 0.00 | 0.00 | 0.00 | 78 | 1012.0 |
| 20260902201608 | 77 | 0 | 0.0 | 2.0 | 0.00 | 0.00 | 0.00 | 78 | 1012.4 |
| 20260902200135 | 76 | 0 | 0.0 | 6.0 | 0.00 | 0.00 | 0.00 | 78 | 1012.3 |
| 20260902194601 | 76 | 117 | 1.0 | 5.0 | 0.00 | 0.00 | 0.00 | 79 | 1012.3 |
| 20260902193057 | 76 | 144 | 1.0 | 6.0 | 0.00 | 0.00 | 0.00 | 78 | 1012.5 |
| 20260902191614 | 76 | 133 | 1.0 | 4.0 | 0.00 | 0.00 | 0.00 | 78 | 1012.6 |